TimeEDT,TemperatureF,Dew PointF,Humidity,Sea Level PressureIn,VisibilityMPH,Wind Direction,Wind SpeedMPH,Gust SpeedMPH,PrecipitationIn,Events,Conditions,WindDirDegrees,DateUTC
12:55 AM,69.6,61.7,76,29.96,10.0,North,4.6,-,N/A,,Partly Cloudy,350,2012-10-07 04:55:00
1:55 AM,68.9,61.5,77,29.97,10.0,NNW,8.1,-,N/A,,Mostly Cloudy,340,2012-10-07 05:55:00
2:55 AM,67.5,57.9,71,29.96,10.0,North,6.9,-,N/A,,Mostly Cloudy,10,2012-10-07 06:55:00
3:32 AM,66.2,57.2,73,29.96,10.0,North,6.9,-,N/A,,Mostly Cloudy,360,2012-10-07 07:32:00
3:55 AM,65.3,57.4,76,29.96,10.0,North,6.9,-,N/A,,Overcast,350,2012-10-07 07:55:00
4:55 AM,63.0,55.0,75,29.96,10.0,North,5.8,-,N/A,,Mostly Cloudy,360,2012-10-07 08:55:00
5:25 AM,62.6,55.4,77,29.97,10.0,North,6.9,-,N/A,,Scattered Clouds,350,2012-10-07 09:25:00
5:55 AM,61.0,54.9,80,29.97,10.0,North,4.6,-,N/A,,Partly Cloudy,360,2012-10-07 09:55:00
5:59 AM,60.8,55.4,82,29.97,10.0,North,3.5,-,N/A,,Mostly Cloudy,10,2012-10-07 09:59:00
6:07 AM,60.8,55.4,82,29.97,10.0,NNE,5.8,-,N/A,,Scattered Clouds,30,2012-10-07 10:07:00
6:55 AM,60.8,51.8,72,29.96,10.0,NE,5.8,-,N/A,,Partly Cloudy,40,2012-10-07 10:55:00
7:55 AM,59.2,49.8,71,29.98,10.0,NE,6.9,-,N/A,,Clear,50,2012-10-07 11:55:00
8:55 AM,61.7,50.5,67,30.02,10.0,NNE,5.8,-,N/A,,Clear,20,2012-10-07 12:55:00
9:17 AM,60.8,50.0,68,30.07,10.0,NNW,13.8,-,N/A,,Mostly Cloudy,330,2012-10-07 13:17:00
9:55 AM,59.5,50.7,73,30.06,10.0,North,11.5,-,N/A,,Overcast,350,2012-10-07 13:55:00
10:21 AM,57.2,53.6,88,30.05,10.0,NNE,10.4,-,N/A,,Overcast,30,2012-10-07 14:21:00
10:55 AM,57.7,52.2,82,30.04,10.0,NNE,6.9,-,0.00,,Overcast,30,2012-10-07 14:55:00
10:58 AM,59.0,51.8,77,30.04,10.0,NNE,8.1,-,N/A,,Overcast,20,2012-10-07 14:58:00
11:24 AM,59.0,51.8,77,30.04,10.0,NNE,5.8,-,N/A,,Overcast,20,2012-10-07 15:24:00
11:55 AM,60.1,52.5,76,30.04,10.0,NNE,6.9,-,N/A,,Overcast,20,2012-10-07 15:55:00
12:55 PM,61.3,52.9,74,30.03,10.0,North,8.1,-,N/A,,Overcast,360,2012-10-07 16:55:00
1:55 PM,61.3,53.4,75,30.01,10.0,Variable,3.5,-,N/A,,Overcast,0,2012-10-07 17:55:00
2:23 PM,60.8,53.6,77,30.00,10.0,NNE,6.9,-,N/A,,Overcast,20,2012-10-07 18:23:00
2:55 PM,61.0,53.2,76,30.01,10.0,North,6.9,-,N/A,,Overcast,350,2012-10-07 18:55:00
3:55 PM,60.3,53.6,79,30.01,10.0,North,4.6,-,N/A,,Overcast,360,2012-10-07 19:55:00
4:55 PM,60.3,54.0,80,30.02,10.0,Variable,5.8,-,N/A,,Overcast,0,2012-10-07 20:55:00
5:07 PM,60.8,53.6,77,30.02,10.0,NNW,10.4,-,N/A,Rain,Light Rain,340,2012-10-07 21:07:00
5:17 PM,60.8,53.6,77,30.03,10.0,NW,10.4,-,N/A,,Mostly Cloudy,320,2012-10-07 21:17:00
5:26 PM,60.8,53.6,77,30.02,10.0,NNW,9.2,-,N/A,,Scattered Clouds,330,2012-10-07 21:26:00
5:37 PM,60.8,53.6,77,30.03,10.0,North,10.4,-,N/A,,Mostly Cloudy,360,2012-10-07 21:37:00
5:55 PM,60.3,54.1,80,30.03,10.0,NNW,10.4,-,0.00,,Mostly Cloudy,340,2012-10-07 21:55:00
5:58 PM,60.8,53.6,77,30.04,10.0,NNW,12.7,-,N/A,,Scattered Clouds,330,2012-10-07 21:58:00
6:02 PM,59.0,53.6,82,30.04,10.0,NNW,9.2,-,N/A,,Mostly Cloudy,340,2012-10-07 22:02:00
6:55 PM,57.4,53.2,86,30.07,10.0,NNW,11.5,-,N/A,,Overcast,340,2012-10-07 22:55:00
7:06 PM,57.2,53.6,88,30.08,10.0,NNW,10.4,-,N/A,,Overcast,340,2012-10-07 23:06:00
7:55 PM,55.9,52.9,89,30.09,10.0,North,12.7,18.4,N/A,,Overcast,350,2012-10-07 23:55:00
8:22 PM,55.4,51.8,88,30.09,10.0,North,12.7,19.6,N/A,,Overcast,360,2012-10-08 00:22:00
8:31 PM,55.4,51.8,88,30.10,10.0,North,11.5,19.6,N/A,,Overcast,350,2012-10-08 00:31:00
8:55 PM,55.2,51.6,88,30.11,10.0,North,11.5,-,N/A,,Overcast,10,2012-10-08 00:55:00
8:57 PM,55.4,51.8,88,30.11,10.0,North,11.5,-,N/A,,Overcast,10,2012-10-08 00:57:00
9:12 PM,55.4,51.8,88,30.12,10.0,North,8.1,16.1,N/A,,Overcast,10,2012-10-08 01:12:00
9:55 PM,54.9,51.1,87,30.13,10.0,NNE,8.1,-,N/A,,Overcast,20,2012-10-08 01:55:00
10:55 PM,54.7,50.7,86,30.13,10.0,NNE,6.9,-,N/A,,Mostly Cloudy,20,2012-10-08 02:55:00
11:12 PM,53.6,50.0,88,30.13,10.0,NNE,4.6,-,N/A,,Mostly Cloudy,20,2012-10-08 03:12:00
11:55 PM,53.8,50.4,88,30.13,10.0,NNE,5.8,-,N/A,,Partly Cloudy,30,2012-10-08 03:55:00